﻿_id,日時,平均風速(m/s),平均風向,最大瞬間風速(m/s),最大風速時風向,気温(℃),湿度(%),10分間移動積算雨量(mm),1時間移動積算雨量(mm),日雨量(mm),累計雨量(mm)
1,2020-12-21T00:00:00,0.6,北北西,1,西,0.7,96.5,0,0,3,5.5
2,2020-12-21T00:01:00,0.6,北,1,西,0.6,96.4,0,0,0,5.5
3,2020-12-21T00:02:00,0.5,北,1,西,0.6,96.3,0,0,0,5.5
4,2020-12-21T00:03:00,0.5,北北東,1,北東,0.7,96.3,0,0,0,5.5
5,2020-12-21T00:04:00,0.5,北北東,1,北東,0.6,96.4,0,0,0,5.5
6,2020-12-21T00:05:00,0.5,北東,1,北東,0.6,96.3,0,0,0,5.5
7,2020-12-21T00:06:00,0.5,東北東,1,北東,0.6,96.3,0,0,0,5.5
8,2020-12-21T00:07:00,0.5,東北東,1,北東,0.6,96.3,0,0,0,5.5
9,2020-12-21T00:08:00,0.4,東北東,1,北東,0.6,96.4,0,0,0,5.5
10,2020-12-21T00:09:00,0.4,東,1,北東,0.7,96.4,0,0,0,5.5
11,2020-12-21T00:10:00,0.4,東,0.8,東南東,0.6,96.4,0,0,0,5.5
12,2020-12-21T00:11:00,0.4,東,0.8,東南東,0.7,96.4,0,0,0,5.5
13,2020-12-21T00:12:00,0.4,東,0.8,東南東,0.8,96.5,0,0,0,5.5
14,2020-12-21T00:13:00,0.4,東南東,0.8,東南東,0.8,96.6,0,0,0,5.5
15,2020-12-21T00:14:00,0.4,東南東,0.8,東南東,0.7,96.5,0,0,0,5.5
16,2020-12-21T00:15:00,0.4,東南東,0.9,東北東,0.6,96.4,0,0,0,5.5
17,2020-12-21T00:16:00,0.4,東,1.2,東北東,0.6,96.3,0,0,0,5.5
18,2020-12-21T00:17:00,0.4,東,1.2,東北東,0.6,96.3,0,0,0,5.5
19,2020-12-21T00:18:00,0.4,東,1.2,東北東,0.6,96.4,0,0,0,5.5
20,2020-12-21T00:19:00,0.5,東北東,1.2,東北東,0.7,96.4,0,0,0,5.5
21,2020-12-21T00:20:00,0.5,東北東,1.2,東北東,0.6,96.4,0,0,0,5.5
22,2020-12-21T00:21:00,0.5,東北東,1.2,東北東,0.6,96.4,0,0,0,5.5
23,2020-12-21T00:22:00,0.5,東北東,1.2,東北東,0.6,96.4,0,0,0,5.5
24,2020-12-21T00:23:00,0.5,北東,1.2,東北東,0.7,96.4,0,0,0,5.5
25,2020-12-21T00:24:00,0.6,北東,1.4,北北西,0.6,96.5,0,0,0,5.5
26,2020-12-21T00:25:00,0.6,北北東,1.4,北北西,0.7,96.4,0,0,0,5.5
27,2020-12-21T00:26:00,0.5,北北東,1.4,北北西,0.7,96.5,0,0,0,5.5
28,2020-12-21T00:27:00,0.5,北,1.4,北北西,0.6,96.5,0,0,0,5.5
29,2020-12-21T00:28:00,0.5,北,1.4,北北西,0.6,96.4,0,0,0,5.5
30,2020-12-21T00:29:00,0.6,北,1.4,北北西,0.7,96.4,0,0,0,5.5
31,2020-12-21T00:30:00,0.6,北,1.4,北北西,0.7,96.5,0,0,0,5.5
32,2020-12-21T00:31:00,0.6,北,1.4,北北西,0.7,96.5,0,0,0,5.5
33,2020-12-21T00:32:00,0.6,北,1.4,北北西,0.7,96.5,0,0,0,5.5
34,2020-12-21T00:33:00,0.7,北,1.4,北北西,0.7,96.5,0,0,0,5.5
35,2020-12-21T00:34:00,0.7,北,1.2,北北東,0.7,96.5,0,0,0,5.5
36,2020-12-21T00:35:00,0.7,北,1.3,北北西,0.6,96.5,0,0,0,5.5
37,2020-12-21T00:36:00,0.7,北,1.3,北北西,0.6,96.4,0,0,0,5.5
38,2020-12-21T00:37:00,0.7,北,1.3,北北西,0.6,96.4,0,0,0,5.5
39,2020-12-21T00:38:00,0.7,北,1.3,北北西,0.7,96.5,0,0,0,5.5
40,2020-12-21T00:39:00,0.7,北,1.3,北北西,0.7,96.5,0,0,0,5.5
41,2020-12-21T00:40:00,0.6,北北西,1.3,北北西,0.7,96.5,0,0,0,5.5
42,2020-12-21T00:41:00,0.6,北北西,1.3,北北西,0.7,96.5,0,0,0,5.5
43,2020-12-21T00:42:00,0.6,北,1.3,北北西,0.7,96.6,0,0,0,5.5
44,2020-12-21T00:43:00,0.6,北,1.3,北北西,0.7,96.5,0,0,0,5.5
45,2020-12-21T00:44:00,0.6,北,1.3,北北西,0.7,96.5,0,0,0,5.5
46,2020-12-21T00:45:00,0.5,北,1,北北東,0.6,96.5,0,0,0,5.5
47,2020-12-21T00:46:00,0.4,北,1,北北東,0.6,96.4,0,0,0,5.5
48,2020-12-21T00:47:00,0.4,北北東,1,北北東,0.7,96.5,0,0,0,5.5
49,2020-12-21T00:48:00,0.4,北北東,1,北北東,0.7,96.5,0,0,0,5.5
50,2020-12-21T00:49:00,0.4,北北東,1,北北東,0.7,96.5,0,0,0,5.5
51,2020-12-21T00:50:00,0.3,北北東,1,北北東,0.7,96.5,0,0,0,5.5
52,2020-12-21T00:51:00,0.3,北東,1,北北東,0.7,96.5,0,0,0,5.5
53,2020-12-21T00:52:00,0.2,静穏,0.9,北北東,0.7,96.5,0,0,0,5.5
54,2020-12-21T00:53:00,0.2,静穏,0.4,北北東,0.7,96.5,0,0,0,5.5
55,2020-12-21T00:54:00,0.2,静穏,0.4,北北東,0.8,96.6,0,0,0,5.5
56,2020-12-21T00:55:00,0.2,静穏,0.4,北北東,0.7,96.6,0,0,0,5.5
57,2020-12-21T00:56:00,0.1,静穏,0.4,北北東,0.8,96.6,0,0,0,5.5
58,2020-12-21T00:57:00,0.2,静穏,0.5,南西,0.8,96.6,0,0,0,5.5
59,2020-12-21T00:58:00,0.2,静穏,1,南南東,0.7,96.6,0,0,0,5.5
60,2020-12-21T00:59:00,0.2,静穏,1,南南東,0.6,96.5,0,0,0,5.5
61,2020-12-21T01:00:00,0.3,南南東,1.3,南南東,0.6,96.4,0,0,0,5.5
62,2020-12-21T01:01:00,0.4,南南東,1.3,南南東,0.6,96.4,0,0,0,5.5
63,2020-12-21T01:02:00,0.5,南南東,1.3,南南東,0.6,96.4,0,0,0,5.5
64,2020-12-21T01:03:00,0.5,南南東,1.3,南南東,0.5,96.4,0,0,0,5.5
65,2020-12-21T01:04:00,0.5,南南東,1.3,南南東,0.6,96.4,0,0,0,5.5
66,2020-12-21T01:05:00,0.6,南南東,1.3,南南東,0.6,96.4,0,0,0,5.5
67,2020-12-21T01:06:00,0.6,南南東,1.3,南南東,0.6,96.5,0,0,0,5.5
68,2020-12-21T01:07:00,0.6,南東,1.3,南南東,0.6,96.5,0,0,0,5.5
69,2020-12-21T01:08:00,0.6,南東,1.3,南南東,0.6,96.5,0,0,0,5.5
70,2020-12-21T01:09:00,0.5,東南東,1.3,南南東,0.7,96.5,0,0,0,5.5
71,2020-12-21T01:10:00,0.5,東南東,1.3,南南東,0.7,96.6,0,0,0,5.5
72,2020-12-21T01:11:00,0.4,東南東,1.1,南南東,0.7,96.6,0,0,0,5.5
73,2020-12-21T01:12:00,0.3,東南東,1.3,南東,0.7,96.6,0,0,0,5.5
74,2020-12-21T01:13:00,0.4,東,1.8,南東,0.6,96.6,0,0,0,5.5
75,2020-12-21T01:14:00,0.5,東,1.8,南東,0.6,96.5,0,0,0,5.5
76,2020-12-21T01:15:00,0.5,東,1.8,南東,0.6,96.5,0,0,0,5.5
77,2020-12-21T01:16:00,0.5,東,1.8,南東,0.7,96.5,0,0,0,5.5
78,2020-12-21T01:17:00,0.5,東,1.8,南東,0.6,96.5,0,0,0,5.5
79,2020-12-21T01:18:00,0.6,東南東,1.8,南東,0.6,96.5,0,0,0,5.5
80,2020-12-21T01:19:00,0.7,東南東,1.8,南東,0.6,96.5,0,0,0,5.5
81,2020-12-21T01:20:00,0.7,東南東,1.8,南東,0.6,96.5,0,0,0,5.5
82,2020-12-21T01:21:00,0.8,東南東,1.8,南東,0.6,96.6,0,0,0,5.5
83,2020-12-21T01:22:00,0.7,東南東,1.8,南東,0.6,96.5,0,0,0,5.5
84,2020-12-21T01:23:00,0.7,東南東,1.6,東南東,0.5,96.5,0,0,0,5.5
85,2020-12-21T01:24:00,0.6,東南東,1.3,東南東,0.5,96.4,0,0,0,5.5
86,2020-12-21T01:25:00,0.6,南東,1.3,東南東,0.6,96.5,0,0,0,5.5
87,2020-12-21T01:26:00,0.5,南南東,1.3,東南東,0.5,96.5,0,0,0,5.5
88,2020-12-21T01:27:00,0.5,南南東,1.3,東南東,0.6,96.5,0,0,0,5.5
89,2020-12-21T01:28:00,0.5,南,1.2,東南東,0.6,96.5,0,0,0,5.5
90,2020-12-21T01:29:00,0.4,南南西,1.1,西南西,0.6,96.5,0,0,0,5.5
91,2020-12-21T01:30:00,0.4,南南西,1.1,西南西,0.6,96.6,0,0,0,5.5
92,2020-12-21T01:31:00,0.5,南南西,1.5,西,0.6,96.6,0,0,0,5.5
93,2020-12-21T01:32:00,0.6,南西,1.5,西,0.6,96.6,0,0,0,5.5
94,2020-12-21T01:33:00,0.6,南西,1.5,西,0.5,96.5,0,0,0,5.5
95,2020-12-21T01:34:00,0.6,西南西,1.5,西,0.5,96.5,0,0,0,5.5
96,2020-12-21T01:35:00,0.6,西南西,1.5,西,0.4,96.4,0,0,0,5.5
97,2020-12-21T01:36:00,0.7,西南西,1.5,西,0.4,96.4,0,0,0,5.5
98,2020-12-21T01:37:00,0.7,西南西,1.5,西,0.4,96.3,0,0,0,5.5
99,2020-12-21T01:38:00,0.7,南西,1.5,西,0.4,96.4,0,0,0,5.5
100,2020-12-21T01:39:00,0.7,西南西,1.5,西,0.5,96.5,0,0,0,5.5
101,2020-12-21T01:40:00,0.7,西南西,1.5,西,0.5,96.5,0,0,0,5.5
102,2020-12-21T01:41:00,0.7,西南西,1.4,西南西,0.4,96.5,0,0,0,5.5
103,2020-12-21T01:42:00,0.7,南西,1.4,西南西,0.4,96.5,0,0,0,5.5
104,2020-12-21T01:43:00,0.7,南西,1.4,西南西,0.4,96.4,0,0,0,5.5
105,2020-12-21T01:44:00,0.6,南西,1.4,西南西,0.4,96.4,0,0,0,5.5
106,2020-12-21T01:45:00,0.7,南南西,1.4,西南西,0.4,96.5,0,0,0,5.5
107,2020-12-21T01:46:00,0.6,南南西,1.4,西南西,0.4,96.5,0,0,0,5.5
108,2020-12-21T01:47:00,0.6,南南西,1.4,西南西,0.4,96.5,0,0,0,5.5
109,2020-12-21T01:48:00,0.5,南,1.3,南南東,0.4,96.5,0,0,0,5.5
110,2020-12-21T01:49:00,0.5,南,1.3,南南東,0.4,96.5,0,0,0,5.5
111,2020-12-21T01:50:00,0.5,南,1.3,南南東,0.4,96.5,0,0,0,5.5
112,2020-12-21T01:51:00,0.6,南南東,1.3,南南東,0.4,96.5,0,0,0,5.5
113,2020-12-21T01:52:00,0.5,南南東,1.2,東南東,0.4,96.5,0,0,0,5.5
114,2020-12-21T01:53:00,0.5,南南東,1.2,東南東,0.4,96.5,0,0,0,5.5
115,2020-12-21T01:54:00,0.5,南東,1.2,東南東,0.4,96.6,0,0,0,5.5
116,2020-12-21T01:55:00,0.6,南東,1.3,南東,0.5,96.6,0,0,0,5.5
117,2020-12-21T01:56:00,0.6,南東,1.4,南東,0.6,96.6,0,0,0,5.5
118,2020-12-21T01:57:00,0.7,南東,1.7,南東,0.5,96.6,0,0,0,5.5
119,2020-12-21T01:58:00,0.8,南東,1.7,南東,0.3,96.5,0,0,0,5.5
120,2020-12-21T01:59:00,0.9,南東,1.7,南東,0.3,96.4,0,0,0,5.5
121,2020-12-21T02:00:00,0.9,南東,1.7,南東,0.3,96.4,0,0,0,5.5
122,2020-12-21T02:01:00,0.9,南東,1.7,南東,0.3,96.4,0,0,0,5.5
123,2020-12-21T02:02:00,0.9,南東,1.7,南東,0.4,96.4,0,0,0,5.5
124,2020-12-21T02:03:00,1,南東,1.8,南南東,0.3,96.4,0,0,0,5.5
125,2020-12-21T02:04:00,1.1,南東,1.8,南南東,0.3,96.4,0,0,0,5.5
126,2020-12-21T02:05:00,1.2,南南東,1.8,南南東,0.3,96.4,0,0,0,5.5
127,2020-12-21T02:06:00,1.2,南南東,2,南南東,0.3,96.5,0,0,0,5.5
128,2020-12-21T02:07:00,1.2,南南東,2,南南東,0.3,96.5,0,0,0,5.5
129,2020-12-21T02:08:00,1.2,南南東,2,南南東,0.3,96.5,0,0,0,5.5
130,2020-12-21T02:09:00,1.2,南南東,2,南南東,0.3,96.5,0,0,0,5.5
131,2020-12-21T02:10:00,1.2,南南東,2,南南東,0.3,96.5,0,0,0,5.5
132,2020-12-21T02:11:00,1.2,南南東,2,南南東,0.3,96.5,0,0,0,5.5
133,2020-12-21T02:12:00,1.2,南南東,2,南南東,0.3,96.5,0,0,0,5.5
134,2020-12-21T02:13:00,1.2,南南東,2,南南東,0.4,96.6,0,0,0,5.5
135,2020-12-21T02:14:00,1.2,南南東,2,南南東,0.3,96.6,0,0,0,5.5
136,2020-12-21T02:15:00,1.1,南南東,2,南南東,0.3,96.6,0,0,0,5.5
137,2020-12-21T02:16:00,1.1,南南東,1.7,南南東,0.3,96.5,0,0,0,5.5
138,2020-12-21T02:17:00,1,南南東,1.5,南南東,0.3,96.5,0,0,0,5.5
139,2020-12-21T02:18:00,0.9,南南東,1.5,南南東,0.3,96.5,0,0,0,5.5
140,2020-12-21T02:19:00,1,南南東,1.7,南,0.2,96.5,0,0,0,5.5
141,2020-12-21T02:20:00,1,南南東,1.7,南,0.2,96.4,0,0,0,5.5
142,2020-12-21T02:21:00,1,南南東,1.7,南,0.2,96.4,0,0,0,5.5
143,2020-12-21T02:22:00,1,南,1.7,南,0.2,96.4,0,0,0,5.5
144,2020-12-21T02:23:00,1.1,南,1.7,南,0.2,96.4,0,0,0,5.5
145,2020-12-21T02:24:00,1.1,南,1.7,南,0.2,96.5,0,0,0,5.5
146,2020-12-21T02:25:00,1.1,南,1.7,南,0.2,96.5,0,0,0,5.5
147,2020-12-21T02:26:00,1.1,南,1.7,南,0.1,96.5,0,0,0,5.5
148,2020-12-21T02:27:00,1.2,南南西,1.7,南,0.1,96.4,0,0,0,5.5
149,2020-12-21T02:28:00,1.2,南南西,1.7,南,0.1,96.4,0,0,0,5.5
150,2020-12-21T02:29:00,1.2,南南西,1.6,南西,0.2,96.5,0,0,0,5.5
151,2020-12-21T02:30:00,1.1,南南西,1.6,南西,0.1,96.5,0,0,0,5.5
152,2020-12-21T02:31:00,1,南南西,1.6,南西,0.2,96.5,0,0,0,5.5
153,2020-12-21T02:32:00,0.9,南南西,1.6,南西,0.2,96.5,0,0,0,5.5
154,2020-12-21T02:33:00,0.9,南南西,1.6,南西,0.1,96.5,0,0,0,5.5
155,2020-12-21T02:34:00,0.9,南西,1.6,南西,0.1,96.5,0,0,0,5.5
156,2020-12-21T02:35:00,0.8,南西,1.6,南西,0.1,96.5,0,0,0,5.5
157,2020-12-21T02:36:00,0.8,南西,1.6,南西,0.1,96.5,0,0,0,5.5
158,2020-12-21T02:37:00,0.8,西南西,1.5,南西,0.1,96.5,0,0,0,5.5
159,2020-12-21T02:38:00,0.7,西南西,1.3,西北西,0.1,96.5,0,0,0,5.5
160,2020-12-21T02:39:00,0.7,西南西,1.3,西北西,0.1,96.5,0,0,0,5.5
161,2020-12-21T02:40:00,0.7,西,1.3,西北西,0.1,96.5,0,0,0,5.5
162,2020-12-21T02:41:00,0.7,西,1.3,西北西,0.2,96.5,0,0,0,5.5
163,2020-12-21T02:42:00,0.7,西,1.3,西北西,0.1,96.5,0,0,0,5.5
164,2020-12-21T02:43:00,0.6,西南西,1.2,西,0,96.5,0,0,0,5.5
165,2020-12-21T02:44:00,0.6,西南西,1.2,西,0.1,96.5,0,0,0,5.5
166,2020-12-21T02:45:00,0.6,西南西,1.2,西,0.1,96.5,0,0,0,5.5
167,2020-12-21T02:46:00,0.5,西南西,1.2,西,0.1,96.5,0,0,0,5.5
168,2020-12-21T02:47:00,0.5,西南西,1.2,西,0.1,96.6,0,0,0,5.5
169,2020-12-21T02:48:00,0.4,西南西,1.2,西,0.1,96.5,0,0,0,5.5
170,2020-12-21T02:49:00,0.3,西南西,0.9,西,0.1,96.5,0,0,0,5.5
171,2020-12-21T02:50:00,0.3,西南西,0.7,西南西,0.1,96.5,0,0,0,5.5
172,2020-12-21T02:51:00,0.4,西南西,0.7,西南西,0.1,96.6,0,0,0,5.5
173,2020-12-21T02:52:00,0.4,西南西,0.8,西,0.1,96.5,0,0,0,5.5
174,2020-12-21T02:53:00,0.5,西南西,1.1,西南西,0.2,96.6,0,0,0,5.5
175,2020-12-21T02:54:00,0.5,西南西,1.1,西南西,0.2,96.6,0,0,0,5.5
176,2020-12-21T02:55:00,0.5,西南西,1.1,西南西,0.2,96.6,0,0,0,5.5
177,2020-12-21T02:56:00,0.6,西南西,1.5,南南西,0.2,96.6,0,0,0,5.5
178,2020-12-21T02:57:00,0.7,西南西,1.5,南南西,0.2,96.6,0,0,0,5.5
179,2020-12-21T02:58:00,0.7,南西,1.5,南南西,0.2,96.6,0,0,0,5.5
180,2020-12-21T02:59:00,0.8,南西,1.5,南南西,0.2,96.5,0,0,0,5.5
181,2020-12-21T03:00:00,0.9,南西,1.5,南南西,0.2,96.5,0,0,0,5.5
182,2020-12-21T03:01:00,0.9,南西,1.5,南南西,0.2,96.5,0,0,0,5.5
183,2020-12-21T03:02:00,0.9,南西,1.5,南南西,0.2,96.6,0,0,0,5.5
184,2020-12-21T03:03:00,0.8,南西,1.5,南南西,0.2,96.6,0,0,0,5.5
185,2020-12-21T03:04:00,0.8,南南西,1.5,南南西,0.3,96.6,0,0,0,5.5
186,2020-12-21T03:05:00,0.7,南南西,1.5,南南西,0.3,96.7,0,0,0,5.5
187,2020-12-21T03:06:00,0.6,南南西,1.5,西,0.3,96.7,0,0,0,5.5
188,2020-12-21T03:07:00,0.6,南南西,1.5,西,0.3,96.7,0,0,0,5.5
189,2020-12-21T03:08:00,0.6,南,1.5,西,0.3,96.7,0,0,0,5.5
190,2020-12-21T03:09:00,0.6,南南東,1.5,西,0.2,96.6,0,0,0,5.5
191,2020-12-21T03:10:00,0.5,南南東,1.5,西,0.1,96.5,0,0,0,5.5
192,2020-12-21T03:11:00,0.5,南南東,1.2,南東,0.2,96.5,0,0,0,5.5
193,2020-12-21T03:12:00,0.5,南南東,1.2,南東,0.1,96.5,0,0,0,5.5
194,2020-12-21T03:13:00,0.5,南,1.2,南東,0.1,96.5,0,0,0,5.5
195,2020-12-21T03:14:00,0.5,南南西,1.2,南東,0.1,96.5,0,0,0,5.5
196,2020-12-21T03:15:00,0.5,南南西,1.2,南東,0.1,96.5,0,0,0,5.5
197,2020-12-21T03:16:00,0.6,南南西,1.2,南東,0.1,96.5,0,0,0,5.5
198,2020-12-21T03:17:00,0.6,南南西,1.2,南東,0.1,96.5,0,0,0,5.5
199,2020-12-21T03:18:00,0.6,南西,1.1,南南西,0.1,96.5,0,0,0,5.5
200,2020-12-21T03:19:00,0.6,南西,1.1,南南西,0.1,96.6,0,0,0,5.5
201,2020-12-21T03:20:00,0.7,南西,1.1,南南西,0.1,96.6,0,0,0,5.5
202,2020-12-21T03:21:00,0.6,南南西,1.1,南南西,0.2,96.6,0,0,0,5.5
203,2020-12-21T03:22:00,0.6,南南西,1.1,南南西,0.2,96.6,0,0,0,5.5
204,2020-12-21T03:23:00,0.5,南南西,1.1,南南西,0.2,96.6,0,0,0,5.5
205,2020-12-21T03:24:00,0.6,南南西,1.1,南南西,0.2,96.6,0,0,0,5.5
206,2020-12-21T03:25:00,0.6,南南西,1.1,南南西,0.1,96.6,0,0,0,5.5
207,2020-12-21T03:26:00,0.6,南西,1.1,南南西,0,96.5,0,0,0,5.5
208,2020-12-21T03:27:00,0.5,南西,1.1,西南西,0,96.5,0,0,0,5.5
209,2020-12-21T03:28:00,0.5,南西,1.1,西南西,0,96.5,0,0,0,5.5
210,2020-12-21T03:29:00,0.5,南西,1.2,南南東,0.1,96.5,0,0,0,5.5
211,2020-12-21T03:30:00,0.4,南南西,1.2,南南東,0.2,96.6,0,0,0,5.5
212,2020-12-21T03:31:00,0.4,南南西,1.2,南南東,0.2,96.7,0,0,0,5.5
213,2020-12-21T03:32:00,0.4,南南西,1.2,南南東,0.2,96.7,0,0,0,5.5
214,2020-12-21T03:33:00,0.4,南南西,1.2,南南東,0.2,96.6,0,0,0,5.5
215,2020-12-21T03:34:00,0.4,南,1.2,南南東,0.2,96.6,0,0,0,5.5
216,2020-12-21T03:35:00,0.3,南東,1.2,南南東,0.2,96.6,0,0,0,5.5
217,2020-12-21T03:36:00,0.3,東南東,1.2,南南東,0.3,96.7,0,0,0,5.5
218,2020-12-21T03:37:00,0.3,東南東,1.2,南南東,0.2,96.7,0,0,0,5.5
219,2020-12-21T03:38:00,0.3,東南東,1.2,南南東,0.1,96.6,0,0,0,5.5
220,2020-12-21T03:39:00,0.3,東南東,1,南東,0.1,96.5,0,0,0,5.5
221,2020-12-21T03:40:00,0.3,東南東,0.9,東南東,0,96.5,0,0,0,5.5
222,2020-12-21T03:41:00,0.3,東南東,0.9,東南東,0,96.4,0,0,0,5.5
223,2020-12-21T03:42:00,0.3,東南東,0.9,東南東,0,96.4,0,0,0,5.5
224,2020-12-21T03:43:00,0.2,静穏,0.9,東南東,0,96.5,0,0,0,5.5
225,2020-12-21T03:44:00,0.2,静穏,0.9,東南東,0,96.5,0,0,0,5.5
226,2020-12-21T03:45:00,0.2,静穏,0.9,東南東,0,96.5,0,0,0,5.5
227,2020-12-21T03:46:00,0.2,静穏,0.9,東南東,0,96.5,0,0,0,5.5
228,2020-12-21T03:47:00,0.2,静穏,0.9,東南東,0,96.5,0,0,0,5.5
229,2020-12-21T03:48:00,0.2,静穏,0.9,東南東,0,96.5,0,0,0,5.5
230,2020-12-21T03:49:00,0.2,静穏,0.9,東南東,0,96.6,0,0,0,5.5
231,2020-12-21T03:50:00,0.2,静穏,0.9,南,0,96.6,0,0,0,5.5
232,2020-12-21T03:51:00,0.3,南,1,南,0,96.6,0,0,0,5.5
233,2020-12-21T03:52:00,0.3,南,1,南,0,96.6,0,0,0,5.5
234,2020-12-21T03:53:00,0.4,南,1.4,南南東,0,96.6,0,0,0,5.5
235,2020-12-21T03:54:00,0.5,南南東,1.4,南南東,0,96.6,0,0,0,5.5
236,2020-12-21T03:55:00,0.5,南南東,1.4,南南東,0,96.6,0,0,0,5.5
237,2020-12-21T03:56:00,0.5,南南東,1.4,南南東,0,96.6,0,0,0,5.5
238,2020-12-21T03:57:00,0.6,南南東,1.4,南南東,0,96.6,0,0,0,5.5
239,2020-12-21T03:58:00,0.7,南南東,1.4,南南東,0,96.6,0,0,0,5.5
240,2020-12-21T03:59:00,0.7,南南東,1.4,南南東,0,96.6,0,0,0,5.5
241,2020-12-21T04:00:00,0.7,南南東,1.4,南南東,0,96.5,0,0,0,5.5
242,2020-12-21T04:01:00,0.7,南南東,1.4,南南東,0,96.5,0,0,0,5.5
243,2020-12-21T04:02:00,0.6,南南東,1.4,南南東,0,96.6,0,0,0,5.5
244,2020-12-21T04:03:00,0.5,南南東,1.4,南南東,0.1,96.7,0,0,0,5.5
245,2020-12-21T04:04:00,0.4,南南東,1.4,南南東,0.1,96.7,0,0,0,5.5
246,2020-12-21T04:05:00,0.4,南南東,1.4,南南東,0.2,96.7,0,0,0,5.5
247,2020-12-21T04:06:00,0.4,南南東,1.4,南南東,0.2,96.7,0,0,0,5.5
248,2020-12-21T04:07:00,0.4,南東,1.4,南南東,0.1,96.7,0,0,0,5.5
249,2020-12-21T04:08:00,0.3,南東,1.1,南東,0,96.6,0,0,0,5.5
250,2020-12-21T04:09:00,0.3,東南東,1.1,南東,0,96.6,0,0,0,5.5
251,2020-12-21T04:10:00,0.2,静穏,0.9,東北東,0,96.6,0,0,0,5.5
252,2020-12-21T04:11:00,0.2,静穏,0.9,東北東,0,96.5,0,0,0,5.5
253,2020-12-21T04:12:00,0.2,静穏,0.9,東北東,0,96.6,0,0,0,5.5
254,2020-12-21T04:13:00,0.2,静穏,0.9,東北東,0,96.5,0,0,0,5.5
255,2020-12-21T04:14:00,0.2,静穏,0.9,東北東,0,96.5,0,0,0,5.5
256,2020-12-21T04:15:00,0.3,東南東,0.9,東北東,0,96.5,0,0,0,5.5
257,2020-12-21T04:16:00,0.3,東南東,0.8,東北東,0,96.6,0,0,0,5.5
258,2020-12-21T04:17:00,0.2,静穏,0.8,東北東,0,96.6,0,0,0,5.5
259,2020-12-21T04:18:00,0.2,静穏,0.7,東南東,0,96.6,0,0,0,5.5
260,2020-12-21T04:19:00,0.2,静穏,0.9,南南東,0,96.6,0,0,0,5.5
261,2020-12-21T04:20:00,0.3,南南東,1.4,南南東,0,96.6,0,0,0,5.5
262,2020-12-21T04:21:00,0.4,南南東,1.4,南南東,0,96.6,0,0,0,5.5
263,2020-12-21T04:22:00,0.5,南南東,1.4,南南東,0,96.6,0,0,0,5.5
264,2020-12-21T04:23:00,0.5,南南東,1.4,南南東,0,96.6,0,0,0,5.5
265,2020-12-21T04:24:00,0.6,南南東,1.5,南,0,96.6,0,0,0,5.5
266,2020-12-21T04:25:00,0.7,南,1.7,南,0,96.6,0,0,0,5.5
267,2020-12-21T04:26:00,0.8,南,1.7,南,0,96.6,0,0,0,5.5
268,2020-12-21T04:27:00,0.9,南,1.7,南,0,96.6,0,0,0,5.5
269,2020-12-21T04:28:00,1,南,1.7,南,0,96.6,0,0,0,5.5
270,2020-12-21T04:29:00,0.9,南,1.7,南,0.1,96.7,0,0,0,5.5
271,2020-12-21T04:30:00,1,南,1.7,南,0,96.7,0,0,0,5.5
272,2020-12-21T04:31:00,0.9,南,1.7,南,0,96.6,0,0,0,5.5
273,2020-12-21T04:32:00,0.9,南,1.7,南,0,96.6,0,0,0,5.5
274,2020-12-21T04:33:00,1,南南東,2.2,南南東,0,96.7,0,0,0,5.5
275,2020-12-21T04:34:00,1,南南東,2.2,南南東,0,96.7,0,0,0,5.5
276,2020-12-21T04:35:00,1,南南東,2.2,南南東,0,96.6,0,0,0,5.5
277,2020-12-21T04:36:00,1.1,南南東,2.4,南南東,0,96.6,0,0,0,5.5
278,2020-12-21T04:37:00,1,南南東,2.4,南南東,0,96.6,0,0,0,5.5
279,2020-12-21T04:38:00,1.1,南南東,2.4,南南東,0,96.6,0,0,0,5.5
280,2020-12-21T04:39:00,1.2,南南東,2.4,南南東,0,96.6,0,0,0,5.5
281,2020-12-21T04:40:00,1.2,南南東,2.4,南南東,0,96.6,0,0,0,5.5
282,2020-12-21T04:41:00,1.4,南東,2.4,南南東,0,96.5,0,0,0,5.5
283,2020-12-21T04:42:00,1.4,南東,2.4,南南東,0,96.5,0,0,0,5.5
284,2020-12-21T04:43:00,1.4,南東,2.4,南南東,0,96.6,0,0,0,5.5
285,2020-12-21T04:44:00,1.4,南東,2.4,南南東,-0.1,96.5,0,0,0,5.5
286,2020-12-21T04:45:00,1.4,南東,2.4,南南東,-0.1,96.5,0,0,0,5.5
287,2020-12-21T04:46:00,1.4,南東,2.3,南東,-0.1,96.5,0,0,0,5.5
288,2020-12-21T04:47:00,1.4,南東,2.3,南東,0,96.5,0,0,0,5.5
289,2020-12-21T04:48:00,1.6,南東,2.6,南南東,0,96.6,0,0,0,5.5
290,2020-12-21T04:49:00,1.6,南南東,2.6,南南東,0,96.6,0,0,0,5.5
291,2020-12-21T04:50:00,1.6,南南東,2.6,南南東,-0.1,96.6,0,0,0,5.5
292,2020-12-21T04:51:00,1.6,南南東,2.6,南南東,-0.1,96.5,0,0,0,5.5
293,2020-12-21T04:52:00,1.6,南南東,2.6,南南東,-0.1,96.5,0,0,0,5.5
294,2020-12-21T04:53:00,1.7,南南東,2.6,南南東,-0.1,96.5,0,0,0,5.5
295,2020-12-21T04:54:00,1.7,南南東,2.6,南南東,-0.1,96.6,0,0,0,5.5
296,2020-12-21T04:55:00,1.8,南南東,2.6,南南東,-0.1,96.6,0,0,0,5.5
297,2020-12-21T04:56:00,1.8,南南東,2.6,南南東,-0.1,96.6,0,0,0,5.5
298,2020-12-21T04:57:00,1.8,南南東,2.6,南南東,-0.1,96.6,0,0,0,5.5
299,2020-12-21T04:58:00,1.8,南南東,2.7,南南東,-0.2,96.5,0,0,0,5.5
300,2020-12-21T04:59:00,1.8,南南東,3,南南東,-0.2,96.5,0,0,0,5.5
301,2020-12-21T05:00:00,1.9,南南東,3,南南東,-0.2,96.5,0,0,0,5.5
302,2020-12-21T05:01:00,1.9,南南東,3,南南東,-0.2,96.5,0,0,0,5.5
303,2020-12-21T05:02:00,1.9,南南東,3,南南東,-0.2,96.5,0,0,0,5.5
304,2020-12-21T05:03:00,1.9,南南東,3,南南東,-0.1,96.6,0,0,0,5.5
305,2020-12-21T05:04:00,1.9,南南東,3,南南東,-0.1,96.6,0,0,0,5.5
306,2020-12-21T05:05:00,1.9,南南東,3,南南東,-0.2,96.6,0,0,0,5.5
307,2020-12-21T05:06:00,1.9,南南東,3,南南東,-0.2,96.5,0,0,0,5.5
308,2020-12-21T05:07:00,2,南南東,3,南南東,-0.2,96.5,0,0,0,5.5
309,2020-12-21T05:08:00,1.9,南南東,3,南南東,-0.3,96.5,0,0,0,5.5
310,2020-12-21T05:09:00,1.7,南南東,2.7,南南東,-0.2,96.5,0,0,0,5.5
311,2020-12-21T05:10:00,1.6,南南東,2.7,南南東,-0.2,96.6,0,0,0,5.5
312,2020-12-21T05:11:00,1.5,南南東,2.5,南南東,-0.3,96.6,0,0,0,5.5
313,2020-12-21T05:12:00,1.4,南南東,2.5,南南東,-0.3,96.5,0,0,0,5.5
314,2020-12-21T05:13:00,1.3,南南東,2.5,南南東,-0.2,96.6,0,0,0,5.5
315,2020-12-21T05:14:00,1.2,南南東,2.5,南南東,-0.3,96.6,0,0,0,5.5
316,2020-12-21T05:15:00,1.2,南南東,2.3,南東,-0.2,96.6,0,0,0,5.5
317,2020-12-21T05:16:00,1.2,南南東,2.1,南,-0.2,96.6,0,0,0,5.5
318,2020-12-21T05:17:00,1.2,南東,2,南東,-0.2,96.6,0,0,0,5.5
319,2020-12-21T05:18:00,1.2,南東,2,南東,-0.3,96.6,0,0,0,5.5
320,2020-12-21T05:19:00,1.2,南東,2,南東,-0.2,96.6,0,0,0,5.5
321,2020-12-21T05:20:00,1.2,南東,2,南東,-0.2,96.6,0,0,0,5.5
322,2020-12-21T05:21:00,1.3,南東,2,南東,-0.2,96.6,0,0,0,5.5
323,2020-12-21T05:22:00,1.4,南東,2,南東,-0.2,96.6,0,0,0,5.5
324,2020-12-21T05:23:00,1.4,南東,2,南東,-0.2,96.6,0,0,0,5.5
325,2020-12-21T05:24:00,1.5,南東,2,南東,-0.2,96.5,0,0,0,5.5
326,2020-12-21T05:25:00,1.5,南東,2,南東,-0.2,96.6,0,0,0,5.5
327,2020-12-21T05:26:00,1.5,南東,2,南東,-0.3,96.6,0,0,0,5.5
328,2020-12-21T05:27:00,1.4,南東,2,南東,-0.3,96.5,0,0,0,5.5
329,2020-12-21T05:28:00,1.4,南東,2,南東,-0.3,96.5,0,0,0,5.5
330,2020-12-21T05:29:00,1.3,南東,2,南東,-0.3,96.5,0,0,0,5.5
331,2020-12-21T05:30:00,1.3,南東,2.1,南南東,-0.2,96.6,0,0,0,5.5
332,2020-12-21T05:31:00,1.4,南東,2.1,南南東,-0.3,96.6,0,0,0,5.5
333,2020-12-21T05:32:00,1.3,南東,2.1,南南東,-0.2,96.6,0,0,0,5.5
334,2020-12-21T05:33:00,1.3,南東,2.1,南南東,-0.3,96.6,0,0,0,5.5
335,2020-12-21T05:34:00,1.2,南東,2.1,南南東,-0.2,96.6,0,0,0,5.5
336,2020-12-21T05:35:00,1.1,南東,2.1,南南東,-0.3,96.6,0,0,0,5.5
337,2020-12-21T05:36:00,1.1,南東,2.1,南南東,-0.2,96.6,0,0,0,5.5
338,2020-12-21T05:37:00,1,南東,2.1,南南東,-0.3,96.6,0,0,0,5.5
339,2020-12-21T05:38:00,1,南東,2.1,南南東,-0.2,96.6,0,0,0,5.5
340,2020-12-21T05:39:00,1.1,南東,2.1,南南東,-0.2,96.6,0,0,0,5.5
341,2020-12-21T05:40:00,1.1,南東,1.9,南東,-0.3,96.6,0,0,0,5.5
342,2020-12-21T05:41:00,1.1,南東,1.9,南東,-0.3,96.6,0,0,0,5.5
343,2020-12-21T05:42:00,1.1,南東,2,東南東,-0.2,96.6,0,0,0,5.5
344,2020-12-21T05:43:00,1.1,南東,2,東南東,-0.3,96.6,0,0,0,5.5
345,2020-12-21T05:44:00,1.2,南東,2,東南東,-0.3,96.5,0,0,0,5.5
346,2020-12-21T05:45:00,1.2,東南東,2,東南東,-0.3,96.6,0,0,0,5.5
347,2020-12-21T05:46:00,1.2,東南東,2,東南東,-0.2,96.6,0,0,0,5.5
348,2020-12-21T05:47:00,1.2,東南東,2,東南東,-0.3,96.6,0,0,0,5.5
349,2020-12-21T05:48:00,1.2,東南東,2,東南東,-0.2,96.6,0,0,0,5.5
350,2020-12-21T05:49:00,1.1,東南東,2,東南東,-0.3,96.6,0,0,0,5.5
351,2020-12-21T05:50:00,1.1,南東,2,東南東,-0.3,96.6,0,0,0,5.5
352,2020-12-21T05:51:00,1,南東,2,東南東,-0.2,96.6,0,0,0,5.5
353,2020-12-21T05:52:00,0.9,南東,2,東南東,-0.3,96.6,0,0,0,5.5
354,2020-12-21T05:53:00,0.9,南東,1.8,東南東,-0.2,96.6,0,0,0,5.5
355,2020-12-21T05:54:00,0.9,南東,1.7,南南東,-0.3,96.6,0,0,0,5.5
356,2020-12-21T05:55:00,0.9,南東,2.2,南東,-0.3,96.6,0,0,0,5.5
357,2020-12-21T05:56:00,1,南東,2.2,南東,-0.3,96.6,0,0,0,5.5
358,2020-12-21T05:57:00,1,南東,2.2,南東,-0.3,96.5,0,0,0,5.5
359,2020-12-21T05:58:00,1.1,南東,2.2,南東,-0.4,96.5,0,0,0,5.5
360,2020-12-21T05:59:00,1.1,南東,2.2,南東,-0.4,96.5,0,0,0,5.5
361,2020-12-21T06:00:00,1.2,南東,2.2,南東,-0.3,96.5,0,0,0,5.5
362,2020-12-21T06:01:00,1.4,南東,2.2,南東,-0.4,96.5,0,0,0,5.5
363,2020-12-21T06:02:00,1.5,南東,2.2,南東,-0.4,96.5,0,0,0,5.5
364,2020-12-21T06:03:00,1.5,南東,2.2,南東,-0.4,96.6,0,0,0,5.5
365,2020-12-21T06:04:00,1.5,南東,2.2,南東,-0.4,96.6,0,0,0,5.5
366,2020-12-21T06:05:00,1.5,南東,2.4,東南東,-0.4,96.6,0,0,0,5.5
367,2020-12-21T06:06:00,1.6,南東,3,東南東,-0.4,96.6,0,0,0,5.5
368,2020-12-21T06:07:00,1.7,南東,3,東南東,-0.4,96.5,0,0,0,5.5
369,2020-12-21T06:08:00,1.7,南東,3,東南東,-0.4,96.6,0,0,0,5.5
370,2020-12-21T06:09:00,1.8,南東,3,東南東,-0.5,96.5,0,0,0,5.5
371,2020-12-21T06:10:00,1.8,南東,3,東南東,-0.5,96.5,0,0,0,5.5
372,2020-12-21T06:11:00,1.8,南東,3,東南東,-0.5,96.5,0,0,0,5.5
373,2020-12-21T06:12:00,1.8,南東,3,東南東,-0.4,96.5,0,0,0,5.5
374,2020-12-21T06:13:00,1.7,南東,3,東南東,-0.4,96.5,0,0,0,5.5
375,2020-12-21T06:14:00,1.6,南東,3,東南東,-0.4,96.6,0,0,0,5.5
376,2020-12-21T06:15:00,1.6,南東,3,東南東,-0.4,96.6,0,0,0,5.5
377,2020-12-21T06:16:00,1.5,南東,2.7,南東,-0.4,96.6,0,0,0,5.5
378,2020-12-21T06:17:00,1.5,南東,2.7,南東,-0.5,96.6,0,0,0,5.5
379,2020-12-21T06:18:00,1.4,南東,2.4,南東,-0.5,96.5,0,0,0,5.5
380,2020-12-21T06:19:00,1.3,南東,2.4,南東,-0.5,96.6,0,0,0,5.5
381,2020-12-21T06:20:00,1.2,南東,1.9,東南東,-0.5,96.6,0,0,0,5.5
382,2020-12-21T06:21:00,1.1,南東,1.8,東南東,-0.5,96.6,0,0,0,5.5
383,2020-12-21T06:22:00,1,南東,1.8,東南東,-0.5,96.6,0,0,0,5.5
384,2020-12-21T06:23:00,1.1,南南東,1.7,南南東,-0.5,96.6,0,0,0,5.5
385,2020-12-21T06:24:00,1.1,南南東,1.7,南南東,-0.4,96.6,0,0,0,5.5
386,2020-12-21T06:25:00,1.1,南南東,1.7,南南東,-0.4,96.6,0,0,0,5.5
387,2020-12-21T06:26:00,1,南南東,1.7,南南東,-0.4,96.6,0,0,0,5.5
388,2020-12-21T06:27:00,1.1,南南東,2.4,南南東,-0.5,96.6,0,0,0,5.5
389,2020-12-21T06:28:00,1.2,南南東,2.7,南東,-0.5,96.5,0,0,0,5.5
390,2020-12-21T06:29:00,1.1,南南東,2.7,南東,-0.6,96.5,0,0,0,5.5
391,2020-12-21T06:30:00,1.1,南南東,2.7,南東,-0.6,96.5,0,0,0,5.5
392,2020-12-21T06:31:00,1.1,南南東,2.7,南東,-0.6,96.5,0,0,0,5.5
393,2020-12-21T06:32:00,1,南,2.7,南東,-0.5,96.5,0,0,0,5.5
394,2020-12-21T06:33:00,1,南,2.7,南東,-0.5,96.6,0,0,0,5.5
395,2020-12-21T06:34:00,1,南,2.7,南東,-0.5,96.5,0,0,0,5.5
396,2020-12-21T06:35:00,1,南,2.7,南東,-0.5,96.5,0,0,0,5.5
397,2020-12-21T06:36:00,1,南,2.7,南東,-0.5,96.6,0,0,0,5.5
398,2020-12-21T06:37:00,0.8,南,2.7,南東,-0.5,96.6,0,0,0,5.5
399,2020-12-21T06:38:00,0.6,南,1.4,南東,-0.5,96.6,0,0,0,5.5
400,2020-12-21T06:39:00,0.5,南南西,1.3,南南東,-0.5,96.6,0,0,0,5.5
401,2020-12-21T06:40:00,0.5,南,1.3,南南東,-0.4,96.7,0,0,0,5.5
402,2020-12-21T06:41:00,0.5,南,1.3,南南東,-0.4,96.7,0,0,0,5.5
403,2020-12-21T06:42:00,0.5,南南東,1.3,南南東,-0.5,96.7,0,0,0,5.5
404,2020-12-21T06:43:00,0.5,南南東,1.3,南南東,-0.4,96.7,0,0,0,5.5
405,2020-12-21T06:44:00,0.4,南南東,1.3,南南東,-0.4,96.7,0,0,0,5.5
406,2020-12-21T06:45:00,0.3,南東,1,東南東,-0.4,96.7,0,0,0,5.5
407,2020-12-21T06:46:00,0.4,南東,1,東南東,-0.4,96.7,0,0,0,5.5
408,2020-12-21T06:47:00,0.4,南東,1.1,東南東,-0.5,96.6,0,0,0,5.5
409,2020-12-21T06:48:00,0.5,東南東,1.3,東南東,-0.5,96.6,0,0,0,5.5
410,2020-12-21T06:49:00,0.6,東南東,1.3,東南東,-0.4,96.6,0,0,0,5.5
411,2020-12-21T06:50:00,0.6,東南東,1.5,東南東,-0.4,96.7,0,0,0,5.5
412,2020-12-21T06:51:00,0.6,東南東,1.5,東南東,-0.3,96.7,0,0,0,5.5
413,2020-12-21T06:52:00,0.7,東南東,1.5,東南東,-0.4,96.7,0,0,0,5.5
414,2020-12-21T06:53:00,0.7,東南東,1.5,東南東,-0.4,96.7,0,0,0,5.5
415,2020-12-21T06:54:00,0.7,東南東,1.5,東南東,-0.4,96.6,0,0,0,5.5
416,2020-12-21T06:55:00,0.7,東南東,1.5,東南東,-0.4,96.6,0,0,0,5.5
417,2020-12-21T06:56:00,0.6,東南東,1.5,東南東,-0.4,96.6,0,0,0,5.5
418,2020-12-21T06:57:00,0.6,東南東,1.5,東南東,-0.5,96.6,0,0,0,5.5